TimeEST,TemperatureF,Dew PointF,Humidity,Sea Level PressureIn,VisibilityMPH,Wind Direction,Wind SpeedMPH,Gust SpeedMPH,PrecipitationIn,Events,Conditions,WindDirDegrees,DateUTC
12:15 AM,39.7,34.9,83,29.92,10.0,North,8.1,-,N/A,,Unknown,350,2014-01-16 05:15:00
12:35 AM,39.6,34.9,83,29.93,10.0,NNW,5.8,-,N/A,,Unknown,340,2014-01-16 05:35:00
12:55 AM,39.4,34.7,83,29.93,10.0,North,8.1,-,N/A,,Unknown,350,2014-01-16 05:55:00
1:15 AM,39.4,34.2,82,29.93,10.0,North,6.9,-,N/A,,Unknown,10,2014-01-16 06:15:00
1:35 AM,39.4,34.0,81,29.93,10.0,North,5.8,-,N/A,,Unknown,350,2014-01-16 06:35:00
1:55 AM,39.2,34.0,82,29.93,10.0,NNW,5.8,-,N/A,,Unknown,340,2014-01-16 06:55:00
2:15 AM,38.8,34.5,84,29.93,10.0,NW,5.8,-,N/A,,Unknown,320,2014-01-16 07:15:00
2:35 AM,38.5,34.9,87,29.94,10.0,NNW,4.6,-,N/A,,Unknown,330,2014-01-16 07:35:00
2:55 AM,38.5,35.6,89,29.95,10.0,NW,4.6,-,N/A,,Unknown,310,2014-01-16 07:55:00
3:15 AM,38.5,34.5,86,29.95,10.0,North,6.9,-,N/A,,Unknown,360,2014-01-16 08:15:00
3:35 AM,38.3,32.2,79,29.94,10.0,North,8.1,-,N/A,,Light Drizzle,350,2014-01-16 08:35:00
3:55 AM,37.6,32.0,80,29.95,10.0,North,6.9,-,N/A,,Light Drizzle,350,2014-01-16 08:55:00
4:15 AM,37.0,31.8,81,29.94,10.0,North,5.8,-,N/A,,Unknown,350,2014-01-16 09:15:00
4:35 AM,36.3,32.0,84,29.93,10.0,North,4.6,-,N/A,,Unknown,360,2014-01-16 09:35:00
4:55 AM,35.6,33.1,91,29.95,10.0,NW,4.6,-,N/A,,Unknown,320,2014-01-16 09:55:00
5:15 AM,35.1,33.3,93,29.95,10.0,Calm,Calm,-,N/A,,Unknown,0,2014-01-16 10:15:00
5:35 AM,34.2,32.7,94,29.96,10.0,NW,4.6,-,N/A,,Unknown,320,2014-01-16 10:35:00
5:55 AM,34.0,32.4,94,29.96,10.0,NNW,3.5,-,N/A,,Unknown,330,2014-01-16 10:55:00
6:15 AM,34.2,32.4,93,29.98,10.0,NW,4.6,-,N/A,,Unknown,320,2014-01-16 11:15:00
6:35 AM,34.2,32.2,92,29.98,10.0,NNW,4.6,-,N/A,,Unknown,340,2014-01-16 11:35:00
6:55 AM,34.0,32.0,92,29.99,10.0,NNW,4.6,-,N/A,,Unknown,340,2014-01-16 11:55:00
7:15 AM,33.4,31.6,93,29.99,10.0,North,3.5,-,N/A,,Unknown,360,2014-01-16 12:15:00
7:35 AM,32.9,31.1,93,29.99,10.0,North,5.8,-,N/A,,Unknown,350,2014-01-16 12:35:00
7:55 AM,32.2,31.1,96,30.01,10.0,NW,5.8,-,N/A,,Unknown,310,2014-01-16 12:55:00
8:15 AM,32.0,30.6,94,30.01,10.0,NNW,4.6,-,N/A,,Unknown,340,2014-01-16 13:15:00
8:35 AM,33.1,30.9,92,30.02,10.0,NNW,6.9,-,N/A,,Unknown,330,2014-01-16 13:35:00
8:55 AM,33.8,29.1,83,30.03,10.0,NW,6.9,-,N/A,,Unknown,320,2014-01-16 13:55:00
9:15 AM,34.7,28.0,77,30.03,10.0,NNW,8.1,-,N/A,,Unknown,340,2014-01-16 14:15:00
9:35 AM,36.1,25.5,65,30.03,10.0,North,9.2,16.1,N/A,,Unknown,360,2014-01-16 14:35:00
9:55 AM,37.6,24.6,60,30.03,10.0,North,6.9,-,N/A,,Unknown,360,2014-01-16 14:55:00
10:15 AM,39.4,24.4,55,30.03,10.0,NNW,9.2,-,N/A,,Unknown,340,2014-01-16 15:15:00
10:35 AM,40.1,23.7,52,30.03,10.0,North,6.9,-,N/A,,Unknown,10,2014-01-16 15:35:00
10:55 AM,41.0,22.6,48,30.02,10.0,NNE,6.9,-,N/A,,Unknown,20,2014-01-16 15:55:00
11:15 AM,41.7,21.9,45,30.03,10.0,NNW,5.8,-,N/A,,Unknown,340,2014-01-16 16:15:00
11:35 AM,42.1,20.7,42,30.02,10.0,North,6.9,-,N/A,,Unknown,350,2014-01-16 16:35:00
11:55 AM,42.8,20.3,41,30.01,10.0,WNW,4.6,-,N/A,,Unknown,300,2014-01-16 16:55:00
12:15 PM,43.2,20.1,40,30.00,10.0,NNW,6.9,-,N/A,,Unknown,330,2014-01-16 17:15:00
12:35 PM,43.7,19.2,38,29.99,10.0,WNW,5.8,-,N/A,,Unknown,290,2014-01-16 17:35:00
12:55 PM,44.1,19.0,37,29.97,10.0,West,3.5,-,N/A,,Unknown,280,2014-01-16 17:55:00
1:15 PM,44.4,19.2,37,29.96,10.0,North,4.6,-,N/A,,Unknown,350,2014-01-16 18:15:00
1:35 PM,44.6,20.3,38,29.96,10.0,West,9.2,-,N/A,,Unknown,280,2014-01-16 18:35:00
1:55 PM,44.4,19.9,38,29.95,10.0,SW,5.8,-,N/A,,Unknown,230,2014-01-16 18:55:00
2:15 PM,45.3,20.5,37,29.94,10.0,WSW,6.9,-,N/A,,Unknown,250,2014-01-16 19:15:00
2:35 PM,45.5,19.9,36,29.95,10.0,SW,5.8,-,N/A,,Unknown,220,2014-01-16 19:35:00
2:55 PM,46.8,21.4,37,29.95,10.0,WNW,6.9,-,N/A,,Unknown,300,2014-01-16 19:55:00
3:35 PM,46.0,20.5,36,29.95,10.0,WSW,9.2,-,N/A,,Unknown,250,2014-01-16 20:35:00
3:55 PM,45.9,20.7,37,29.95,10.0,WSW,8.1,-,N/A,,Unknown,250,2014-01-16 20:55:00
4:15 PM,45.7,20.1,36,29.96,10.0,WSW,8.1,-,N/A,,Unknown,240,2014-01-16 21:15:00
4:35 PM,45.5,21.7,39,29.97,10.0,West,9.2,-,N/A,,Unknown,260,2014-01-16 21:35:00
4:55 PM,44.6,21.6,40,29.97,10.0,West,5.8,-,N/A,,Unknown,260,2014-01-16 21:55:00
5:15 PM,43.7,22.6,43,29.97,10.0,WSW,3.5,-,N/A,,Unknown,250,2014-01-16 22:15:00
5:35 PM,42.1,23.9,49,29.98,10.0,West,3.5,-,N/A,,Unknown,260,2014-01-16 22:35:00
5:55 PM,41.2,24.8,52,29.99,10.0,Calm,Calm,-,N/A,,Unknown,0,2014-01-16 22:55:00
6:15 PM,40.5,25.3,55,30.00,10.0,Calm,Calm,-,N/A,,Unknown,0,2014-01-16 23:15:00
6:35 PM,39.4,25.0,56,30.00,10.0,Calm,Calm,-,N/A,,Unknown,0,2014-01-16 23:35:00
6:55 PM,37.9,26.1,62,30.01,10.0,Calm,Calm,-,N/A,,Unknown,0,2014-01-16 23:55:00
7:15 PM,38.1,25.7,61,30.01,10.0,Calm,Calm,-,N/A,,Unknown,0,2014-01-17 00:15:00
7:35 PM,38.7,24.4,57,30.01,10.0,South,3.5,-,N/A,,Unknown,180,2014-01-17 00:35:00
7:55 PM,38.8,24.3,56,30.02,10.0,South,3.5,-,N/A,,Unknown,180,2014-01-17 00:55:00
8:15 PM,37.8,24.6,59,30.02,10.0,South,4.6,-,N/A,,Unknown,190,2014-01-17 01:15:00
8:35 PM,37.6,24.8,60,30.02,10.0,South,4.6,-,N/A,,Unknown,190,2014-01-17 01:35:00
8:55 PM,37.6,24.8,60,30.02,10.0,SSW,5.8,-,N/A,,Unknown,200,2014-01-17 01:55:00
9:15 PM,37.4,24.8,60,30.03,10.0,SSW,5.8,-,N/A,,Unknown,200,2014-01-17 02:15:00
9:35 PM,36.0,25.2,65,30.03,10.0,SSW,4.6,-,N/A,,Unknown,210,2014-01-17 02:35:00
9:55 PM,35.6,25.3,66,30.04,10.0,SSW,3.5,-,N/A,,Unknown,210,2014-01-17 02:55:00
10:15 PM,34.0,26.1,73,30.04,10.0,SW,3.5,-,N/A,,Unknown,220,2014-01-17 03:15:00
10:35 PM,34.9,25.5,69,30.04,10.0,SSW,5.8,-,N/A,,Unknown,210,2014-01-17 03:35:00
10:55 PM,35.6,25.0,65,30.04,10.0,South,3.5,-,N/A,,Unknown,190,2014-01-17 03:55:00
11:15 PM,35.1,24.8,66,30.04,10.0,South,3.5,-,N/A,,Unknown,190,2014-01-17 04:15:00
11:35 PM,34.7,24.8,67,30.03,10.0,South,4.6,-,N/A,,Unknown,180,2014-01-17 04:35:00
11:55 PM,33.3,25.7,74,30.04,10.0,SSW,3.5,-,N/A,,Unknown,200,2014-01-17 04:55:00